Weather History for KSVN - December, 2011

Change the Weather History Date:

Saturday, December 17, 2011

  Actual Average (KSAV) Record (KSAV)
Temperature  
Mean Temperature 58 °F 51 °F  
Max Temperature 70 °F 62 °F 80 °F (1924)
Min Temperature 47 °F 40 °F 21 °F (1943)
Degree Days  
Heating Degree Days 6 14  
Month to date heating degree days 211  
Since 1 July heating degree days 478  
Cooling Degree Days 0 0  
Month to date cooling degree days 3  
Year to date cooling degree days 2452  
Growing Degree Days 8 (Base 50)    
Moisture  
Dew Point 49 °F    
Average Humidity 71    
Maximum Humidity 100    
Minimum Humidity 43    
Precipitation  
Precipitation 0.00 in 0.10 in 1.96 in (1880)
Month to date precipitation 1.55  
Year to date precipitation 46.56  
Sea Level Pressure  
Sea Level Pressure 30.15 in    
Wind  
Wind Speed 7 mph (WNW)    
Max Wind Speed 10 mph    
Max Gust Speed -    
Visibility 10 miles    
Events      
T = Trace of Precipitation, MM = Missing Value Source: NWS Daily Summary

Daily Weather History Graph

Daily Weather History Graph

Search for Another Location

Airport or City:

Trip Planner

Search our weather history database for the weather conditions in past years. The results will help you decide how hot, cold, wet, or windy it might be!

Date:

Astronomy

Dec. 17, 2011 Rise Set
Actual Time 7:18 AM EST 5:22 PM EST
Civil Twilight 6:51 AM EST 5:49 PM EST
Nautical Twilight 6:21 AM EST 6:20 PM EST
Astronomical Twilight 5:51 AM EST 6:49 PM EST
Moon No Moon Rise 11:56 AM EST (12/17)
Length of Visible Light 10h 57m
Length of Day
10h 03m
Waning Gibbous, 54% of the Moon is Illuminated
Dec 17
Waning Gibbous
Dec 17
Last Quarter
Dec 24
New
Jan 1
First Quarter
Jan 9
Full

Hourly Weather History & Observations

Time (EST) Temp. Dew Point Humidity Pressure Visibility Wind Dir Wind Speed Gust Speed Precip Events Conditions
12:55 AM 59.2 °F 59.2 °F 100% 30.13 in 10.0 mi SW 6.9 mph - N/A   Clear
1:55 AM 59.2 °F 59.0 °F 99% 30.12 in 10.0 mi SW 6.9 mph - N/A   Mostly Cloudy
2:55 AM 58.3 °F 58.3 °F 100% 30.12 in 10.0 mi WSW 4.6 mph - N/A   Scattered Clouds
3:55 AM 57.7 °F 57.7 °F 100% 30.12 in 10.0 mi West 8.1 mph - N/A   Overcast
4:55 AM 58.3 °F 58.3 °F 100% 30.12 in 10.0 mi WSW 4.6 mph - N/A   Overcast
5:55 AM 58.8 °F 58.8 °F 100% 30.12 in 10.0 mi West 5.8 mph - N/A   Overcast
6:55 AM 59.4 °F 59.4 °F 100% 30.14 in 10.0 mi West 6.9 mph - N/A   Overcast
7:55 AM 60.1 °F 60.1 °F 100% 30.16 in 10.0 mi WNW 9.2 mph - N/A   Overcast
8:55 AM 61.7 °F 57.4 °F 86% 30.17 in 10.0 mi NW 8.1 mph - N/A   Partly Cloudy
9:55 AM 64.0 °F 53.1 °F 67% 30.18 in 10.0 mi NNW 10.4 mph - N/A   Clear
10:55 AM 66.0 °F 52.7 °F 62% 30.18 in 10.0 mi NW 10.4 mph - N/A   Clear
11:55 AM 67.8 °F 51.6 °F 56% 30.16 in 10.0 mi NNW 5.8 mph - N/A   Clear
12:55 PM 70.5 °F 50.0 °F 48% 30.13 in 10.0 mi NW 10.4 mph - N/A   Clear
1:55 PM 70.0 °F 48.6 °F 46% 30.11 in 10.0 mi WNW 10.4 mph - N/A   Clear
2:55 PM 70.0 °F 47.5 °F 45% 30.10 in 10.0 mi WNW 9.2 mph - N/A   Clear
3:55 PM 68.4 °F 44.8 °F 43% 30.10 in 10.0 mi West 10.4 mph - N/A   Clear
4:55 PM 65.7 °F 42.6 °F 43% 30.12 in 10.0 mi NW 8.1 mph - N/A   Clear
5:55 PM 57.6 °F 40.1 °F 52% 30.15 in 10.0 mi WNW 6.9 mph - N/A   Clear
6:55 PM 53.1 °F 38.8 °F 59% 30.16 in 10.0 mi WNW 5.8 mph - N/A   Clear
7:55 PM 52.3 °F 37.4 °F 57% 30.18 in 10.0 mi NW 6.9 mph - N/A   Clear
8:55 PM 52.9 °F 37.4 °F 56% 30.20 in 10.0 mi NW 8.1 mph - N/A   Clear
9:55 PM 47.8 °F 37.0 °F 66% 30.21 in 10.0 mi NW 4.6 mph - N/A   Clear
10:55 PM 49.6 °F 36.5 °F 61% 30.22 in 10.0 mi NW 5.8 mph - N/A   Clear
11:55 PM 47.8 °F 36.1 °F 64% 30.22 in 10.0 mi NW 6.9 mph - N/A   Clear